Date String (YYYY-MM-DD hh:mm:ss) UTC,Instrument flags,Ambient pressure (hPa),Sample flow (lpm),Bypass flow (lpm),Sample temperature (°C),Ambient temperature (°C),ASC tube jacket temperature (°C),LED temperature (°C),Box temperature (°C),Sample RH (%),Span deviation,Mass concentration (μg/m³),Mass concentration (μg/m³),Mass concentration (μg/m³)
DateTimeUTC,F1_M11,P_M11,Q1_M11,Q2_M11,T1_M11,T2_M11,T3_M11,T4_M11,T5_M11,U1_M11,ZSPAN_M11,X2_M11,X0_M11,X1_M11
2022-06-12 17:00:00,,0822.2,5.00,0.00,28.8,27.3,00.0,37.7,30.7,26.4,0000.0,0005.20,0016.92,0003.92
2022-06-12 17:01:00,,0822.1,5.01,0.00,28.8,27.4,00.0,37.7,30.8,26.6,0000.0,0005.15,0016.98,0003.92
2022-06-12 17:02:00,,0822.1,5.00,0.00,28.8,27.6,00.0,37.7,30.8,26.3,0000.0,0005.19,0016.38,0003.92
2022-06-12 17:03:00,,0822.1,4.99,0.00,28.9,27.7,00.0,37.7,30.9,26.6,0000.0,0005.17,0016.06,0003.93
2022-06-12 17:04:00,,0822.1,4.99,0.00,28.9,27.9,00.0,37.7,30.9,26.6,0000.0,0005.16,0016.14,0003.93
2022-06-12 17:05:00,,0822.1,5.00,0.00,29.0,28.0,00.0,37.7,31.0,27.3,0000.0,0005.14,0015.75,0003.93
2022-06-12 17:06:00,,0822.1,5.00,0.00,29.0,27.7,00.0,37.7,30.9,27.0,0000.0,0005.14,0014.64,0003.93
2022-06-12 17:07:00,,0822.0,5.02,0.00,28.9,27.1,00.0,37.6,30.7,27.0,0000.0,0005.17,0013.55,0003.93
2022-06-12 17:08:00,,0822.1,4.99,0.00,28.9,26.9,00.0,37.6,30.7,28.3,0000.0,0005.20,0013.75,0003.93
2022-06-12 17:09:00,,0822.1,5.02,0.00,28.8,26.9,00.0,37.6,30.7,27.3,0000.0,0005.21,0013.59,0003.93
2022-06-12 17:10:00,,0822.1,4.98,0.00,28.8,27.1,00.0,37.6,30.6,27.5,0000.0,0005.19,0013.49,0003.93
2022-06-12 17:11:00,,0822.1,5.00,0.00,28.8,27.2,00.0,37.6,30.7,26.7,0000.0,0005.17,0013.52,0003.92
2022-06-12 17:12:00,,0822.1,5.01,0.00,28.8,27.4,00.0,37.6,30.7,26.4,0000.0,0005.19,0013.18,0003.90
2022-06-12 17:13:00,,0822.1,5.01,0.00,28.8,27.5,00.0,37.7,30.8,26.4,0000.0,0005.16,0013.18,0003.89
2022-06-12 17:14:00,,0822.1,4.99,0.00,28.9,27.7,00.0,37.7,30.8,26.8,0000.0,0005.19,0013.44,0003.89
2022-06-12 17:15:00,,0822.0,5.00,0.00,28.9,27.9,00.0,37.7,30.9,26.4,0000.0,0005.20,0013.85,0003.88
2022-06-12 17:16:00,,0821.9,4.99,0.00,28.9,28.0,00.0,37.7,31.0,26.6,0000.0,0005.18,0014.56,0003.87
2022-06-12 17:17:00,,0821.9,4.99,0.00,29.0,27.8,00.0,37.7,30.9,26.6,0000.0,0005.21,0015.31,0003.87
2022-06-12 17:18:00,,0821.9,5.01,0.00,28.9,27.2,00.0,37.6,30.8,26.1,0000.0,0005.23,0015.75,0003.85
2022-06-12 17:19:00,,0822.0,5.00,0.00,28.9,26.9,00.0,37.6,30.7,26.2,0000.0,0005.19,0015.56,0003.84
2022-06-12 17:20:00,,0822.2,5.00,0.00,28.8,27.0,00.0,37.6,30.7,26.5,0000.0,0005.18,0015.18,0003.83
2022-06-12 17:21:00,,0821.8,5.00,0.00,28.8,27.1,00.0,37.6,30.6,26.5,0000.0,0005.20,0015.86,0003.81
2022-06-12 17:22:00,,0821.8,5.00,0.00,28.8,27.2,00.0,37.6,30.7,26.7,0000.0,0005.16,0016.04,0003.79
2022-06-12 17:23:00,,0821.9,5.00,0.00,28.8,27.4,00.0,37.6,30.7,26.8,0000.0,0005.13,0016.16,0003.77
2022-06-12 17:24:00,,0821.8,4.99,0.00,28.8,27.6,00.0,37.7,30.8,27.7,0000.0,0005.07,0015.99,0003.75
2022-06-12 17:25:00,,0821.8,5.00,0.00,28.9,27.7,00.0,37.7,30.9,27.4,0000.0,0005.05,0016.32,0003.74
2022-06-12 17:26:00,,0822.1,5.00,0.00,28.9,27.9,00.0,37.7,30.9,26.9,0000.0,0005.03,0016.11,0003.73
2022-06-12 17:27:00,,0821.8,5.00,0.00,29.0,28.0,00.0,37.7,31.0,26.8,0000.0,0005.00,0015.41,0003.70
2022-06-12 17:28:00,,0821.8,5.00,0.00,29.0,27.6,00.0,37.7,30.9,27.5,0000.0,0004.98,0014.97,0003.68
2022-06-12 17:29:00,,0821.8,5.01,0.00,28.9,27.1,00.0,37.6,30.7,26.7,0000.0,0004.94,0014.56,0003.68
2022-06-12 17:30:00,,0821.8,4.99,0.00,28.9,26.9,00.0,37.6,30.7,28.1,0000.0,0004.92,0014.16,0003.67
2022-06-12 17:31:00,,0821.8,5.00,0.00,28.8,27.0,00.0,37.6,30.6,28.1,0000.0,0004.88,0014.79,0003.66
2022-06-12 17:32:00,,0821.8,5.00,0.00,28.8,27.1,00.0,37.6,30.7,27.0,0000.0,0004.88,0015.53,0003.65
2022-06-12 17:33:00,,0821.8,5.02,0.00,28.8,27.3,00.0,37.6,30.7,26.3,0000.0,0004.88,0015.84,0003.65
2022-06-12 17:34:00,,0821.7,5.00,0.00,28.8,27.5,00.0,37.6,30.8,25.7,0000.0,0004.86,0015.51,0003.64
2022-06-12 17:35:00,,0821.7,5.00,0.00,28.8,27.6,00.0,37.7,30.8,27.5,0000.0,0004.88,0016.15,0003.63
2022-06-12 17:36:00,,0821.7,4.99,0.00,28.9,27.8,00.0,37.7,30.9,27.4,0000.0,0004.89,0016.11,0003.62
2022-06-12 17:37:00,,0821.7,4.99,0.00,28.9,27.9,00.0,37.7,30.9,26.5,0000.0,0004.94,0016.07,0003.62
2022-06-12 17:38:00,,0821.7,5.00,0.00,28.9,27.7,00.0,37.7,30.9,26.2,0000.0,0004.99,0016.26,0003.63
2022-06-12 17:39:00,,0821.8,5.01,0.00,28.9,27.1,00.0,37.6,30.7,26.5,0000.0,0005.03,0016.32,0003.63
2022-06-12 17:40:00,,0821.7,5.00,0.00,28.8,27.0,00.0,37.6,30.7,27.2,0000.0,0005.04,0016.91,0003.60
2022-06-12 17:41:00,,0821.7,5.00,0.00,28.8,27.0,00.0,37.6,30.6,28.2,0000.0,0005.07,0017.11,0003.60
2022-06-12 17:42:00,,0821.7,4.99,0.00,28.8,27.1,00.0,37.6,30.6,28.6,0000.0,0005.12,0016.43,0003.61
2022-06-12 17:43:00,,0821.7,5.01,0.00,28.8,27.3,00.0,37.6,30.7,28.4,0000.0,0005.13,0014.91,0003.61
2022-06-12 17:44:00,,0821.7,5.01,0.00,28.8,27.5,00.0,37.6,30.7,29.8,0000.0,0005.11,0013.99,0003.62
2022-06-12 17:45:00,,0821.7,4.99,0.00,28.8,27.6,00.0,37.6,30.8,29.0,0000.0,0005.16,0014.28,0003.63
2022-06-12 17:46:00,,0821.7,5.00,0.00,28.9,27.8,00.0,37.6,30.9,26.7,0000.0,0005.17,0013.81,0003.64
2022-06-12 17:47:00,,0821.6,5.00,0.00,28.9,27.9,00.0,37.7,30.9,27.0,0000.0,0005.19,0013.37,0003.64
2022-06-12 17:48:00,,0821.6,5.02,0.00,28.9,27.4,00.0,37.6,30.8,26.9,0000.0,0005.20,0013.41,0003.65
2022-06-12 17:49:00,,0821.5,4.99,0.00,28.8,27.0,00.0,37.6,30.6,28.3,0000.0,0005.22,0013.42,0003.64
2022-06-12 17:50:00,,0821.5,5.01,0.00,28.8,26.9,00.0,37.6,30.6,28.4,0000.0,0005.21,0013.18,0003.65
2022-06-12 17:51:00,,0821.5,5.00,0.00,28.8,27.0,00.0,37.6,30.6,29.2,0000.0,0005.24,0012.63,0003.65
2022-06-12 17:52:00,,0821.5,4.98,0.00,28.7,27.2,00.0,37.6,30.6,28.7,0000.0,0005.26,0012.53,0003.65
2022-06-12 17:53:00,,0821.5,5.01,0.00,28.8,27.3,00.0,37.6,30.7,28.5,0000.0,0005.24,0013.04,0003.67
2022-06-12 17:54:00,,0821.5,5.00,0.00,28.8,27.5,00.0,37.6,30.7,28.9,0000.0,0005.24,0013.37,0003.69
2022-06-12 17:55:00,,0821.5,4.99,0.00,28.8,27.7,00.0,37.6,30.8,29.4,0000.0,0005.32,0013.52,0003.70
2022-06-12 17:56:00,,0821.5,5.01,0.00,28.9,27.8,00.0,37.6,30.9,28.9,0000.0,0005.33,0013.96,0003.70
2022-06-12 17:57:00,,0821.4,5.01,0.00,28.9,27.7,00.0,37.6,30.9,29.2,0000.0,0005.32,0014.42,0003.72
2022-06-12 17:58:00,,0821.4,4.99,0.00,28.8,27.2,00.0,37.6,30.7,29.3,0000.0,0005.30,0015.27,0003.73
2022-06-12 17:59:00,,0821.4,4.99,0.00,28.8,26.9,00.0,37.5,30.6,28.8,0000.0,0005.26,0015.54,0003.74
